Date String (YYYY-MM-DD hh:mm:ss) UTC,Instrument flags,Ambient pressure (hPa),Sample flow (lpm),Bypass flow (lpm),Sample temperature (°C),Ambient temperature (°C),ASC tube jacket temperature (°C),LED temperature (°C),Box temperature (°C),Sample RH (%),Span deviation,Mass concentration (μg/m³),Mass concentration (μg/m³),Mass concentration (μg/m³)
DateTimeUTC,F1_M11,P_M11,Q1_M11,Q2_M11,T1_M11,T2_M11,T3_M11,T4_M11,T5_M11,U1_M11,ZSPAN_M11,X2_M11,X0_M11,X1_M11
2023-02-12 23:00:00,,0824.7,4.99,0.00,22.4,21.0,00.0,31.2,24.2,14.2,0000.0,0005.21,0010.42,0004.81
2023-02-12 23:01:00,,0824.6,4.96,0.00,22.4,21.0,00.0,31.2,24.2,14.4,0000.0,0005.15,0011.74,0004.75
2023-02-12 23:02:00,,0824.6,4.99,0.00,22.4,21.0,00.0,31.2,24.3,14.3,0000.0,0005.09,0011.66,0004.69
2023-02-12 23:03:00,,0824.6,4.98,0.00,22.4,21.1,00.0,31.2,24.3,14.3,0000.0,0005.05,0011.69,0004.63
2023-02-12 23:04:00,,0824.8,5.01,0.00,22.4,21.0,00.0,31.2,24.3,14.0,0000.0,0005.01,0011.65,0004.57
2023-02-12 23:05:00,,0824.8,4.99,0.00,22.4,21.0,00.0,31.2,24.3,13.9,0000.0,0004.95,0011.46,0004.51
2023-02-12 23:06:00,,0824.6,4.97,0.00,22.4,20.9,00.0,31.2,24.2,13.9,0000.0,0004.90,0010.61,0004.46
2023-02-12 23:07:00,,0824.9,4.99,0.00,22.4,20.8,00.0,31.2,24.2,13.8,0000.0,0004.84,0010.50,0004.41
2023-02-12 23:08:00,,0824.8,5.01,0.00,22.4,20.7,00.0,31.2,24.2,13.8,0000.0,0004.74,0010.36,0004.35
2023-02-12 23:09:00,,0824.7,5.02,0.00,22.4,20.7,00.0,31.2,24.2,13.8,0000.0,0004.67,0010.74,0004.30
2023-02-12 23:10:00,,0824.7,5.03,0.00,22.4,20.6,00.0,31.2,24.1,13.9,0000.0,0004.62,0011.14,0004.25
2023-02-12 23:11:00,,0824.5,5.00,0.00,22.3,20.6,00.0,31.2,24.1,13.9,0000.0,0004.57,0010.21,0004.20
2023-02-12 23:12:00,,0824.7,5.00,0.00,22.3,20.6,00.0,31.2,24.1,14.0,0000.0,0004.55,0008.69,0004.18
2023-02-12 23:13:00,,0824.6,5.02,0.00,22.3,20.7,00.0,31.2,24.2,14.0,0000.0,0004.54,0008.62,0004.17
2023-02-12 23:14:00,,0824.5,5.01,0.00,22.3,20.7,00.0,31.2,24.2,14.0,0000.0,0004.55,0009.20,0004.16
2023-02-12 23:15:00,,0824.5,5.01,0.00,22.3,20.8,00.0,31.2,24.2,14.0,0000.0,0004.53,0009.34,0004.15
2023-02-12 23:16:00,,0824.9,5.01,0.00,22.3,20.8,00.0,31.2,24.2,14.0,0000.0,0004.55,0009.57,0004.15
2023-02-12 23:17:00,,0824.7,4.99,0.00,22.3,20.8,00.0,31.2,24.2,14.1,0000.0,0004.58,0009.79,0004.15
2023-02-12 23:18:00,,0824.7,5.01,0.00,22.4,20.8,00.0,31.2,24.2,14.1,0000.0,0004.59,0009.85,0004.15
2023-02-12 23:19:00,,0824.9,5.02,0.00,22.4,20.9,00.0,31.2,24.2,14.2,0000.0,0004.61,0009.82,0004.16
2023-02-12 23:20:00,,0824.5,5.00,0.00,22.4,20.9,00.0,31.2,24.3,14.2,0000.0,0004.66,0009.41,0004.15
2023-02-12 23:21:00,,0824.9,5.00,0.00,22.4,20.9,00.0,31.2,24.2,14.1,0000.0,0004.67,0008.91,0004.16
2023-02-12 23:22:00,,0824.5,5.01,0.00,22.4,20.8,00.0,31.2,24.2,14.1,0000.0,0004.67,0009.20,0004.16
2023-02-12 23:23:00,,0824.8,5.00,0.00,22.4,20.8,00.0,31.2,24.2,14.1,0000.0,0004.69,0009.65,0004.17
2023-02-12 23:24:00,,0824.8,4.97,0.00,22.4,20.8,00.0,31.2,24.2,14.1,0000.0,0004.70,0009.60,0004.18
2023-02-12 23:25:00,,0824.8,5.01,0.00,22.4,20.7,00.0,31.2,24.2,14.1,0000.0,0004.70,0009.16,0004.18
2023-02-12 23:26:00,,0824.6,4.97,0.00,22.3,20.7,00.0,31.2,24.2,14.3,0000.0,0004.70,0008.91,0004.18
2023-02-12 23:27:00,,0824.7,5.02,0.00,22.3,20.7,00.0,31.2,24.2,14.3,0000.0,0004.68,0008.70,0004.19
2023-02-12 23:28:00,,0824.7,5.00,0.00,22.3,20.7,00.0,31.2,24.1,14.3,0000.0,0004.68,0008.52,0004.20
2023-02-12 23:29:00,,0824.8,4.99,0.00,22.3,20.6,00.0,31.2,24.1,14.4,0000.0,0004.69,0008.49,0004.21
2023-02-12 23:30:00,,0824.6,5.01,0.00,22.3,20.6,00.0,31.2,24.1,14.5,0000.0,0004.70,0008.52,0004.21
2023-02-12 23:31:00,,0824.6,5.00,0.00,22.3,20.6,00.0,31.2,24.1,14.5,0000.0,0004.67,0008.80,0004.22
2023-02-12 23:32:00,,0824.4,5.02,0.00,22.3,20.6,00.0,31.2,24.1,14.6,0000.0,0004.67,0008.75,0004.24
2023-02-12 23:33:00,,0824.6,5.00,0.00,22.3,20.6,00.0,31.2,24.1,14.6,0000.0,0004.68,0008.71,0004.27
2023-02-12 23:34:00,,0824.5,5.02,0.00,22.3,20.6,00.0,31.2,24.1,14.6,0000.0,0004.73,0008.43,0004.30
2023-02-12 23:35:00,,0824.5,5.01,0.00,22.3,20.6,00.0,31.2,24.0,14.4,0000.0,0004.73,0008.73,0004.31
2023-02-12 23:36:00,,0824.5,5.01,0.00,22.3,20.5,00.0,31.2,24.0,14.3,0000.0,0004.71,0008.70,0004.31
2023-02-12 23:37:00,,0824.5,5.00,0.00,22.2,20.5,00.0,31.2,24.0,14.4,0000.0,0004.72,0008.78,0004.33
2023-02-12 23:38:00,,0824.5,5.00,0.00,22.2,20.5,00.0,31.2,24.0,14.3,0000.0,0004.73,0008.88,0004.33
2023-02-12 23:39:00,,0824.5,4.99,0.00,22.2,20.5,00.0,31.2,24.0,14.4,0000.0,0004.72,0008.86,0004.32
2023-02-12 23:40:00,,0824.4,4.99,0.00,22.2,20.5,00.0,31.2,24.0,14.3,0000.0,0004.71,0008.94,0004.32
2023-02-12 23:41:00,,0824.4,5.01,0.00,22.2,20.5,00.0,31.2,24.0,14.3,0000.0,0004.71,0009.23,0004.32
2023-02-12 23:42:00,,0824.4,5.03,0.00,22.2,20.6,00.0,31.2,24.0,14.4,0000.0,0004.72,0009.01,0004.31
2023-02-12 23:43:00,,0824.4,4.98,0.00,22.2,20.6,00.0,31.1,24.0,14.3,0000.0,0004.69,0008.81,0004.28
2023-02-12 23:44:00,,0824.4,5.00,0.00,22.2,20.6,00.0,31.1,24.0,14.4,0000.0,0004.67,0008.74,0004.25
2023-02-12 23:45:00,,0824.5,5.00,0.00,22.2,20.6,00.0,31.1,24.0,14.3,0000.0,0004.62,0008.45,0004.22
2023-02-12 23:46:00,,0824.5,4.99,0.00,22.2,20.6,00.0,31.1,24.0,14.3,0000.0,0004.60,0008.67,0004.21
2023-02-12 23:47:00,,0824.4,4.99,0.00,22.2,20.6,00.0,31.1,24.0,14.3,0000.0,0004.63,0009.20,0004.20
2023-02-12 23:48:00,,0824.4,4.98,0.00,22.2,20.6,00.0,31.1,24.0,14.4,0000.0,0004.65,0009.44,0004.19
2023-02-12 23:49:00,,0824.4,4.98,0.00,22.2,20.6,00.0,31.1,24.0,14.6,0000.0,0004.66,0009.43,0004.19
2023-02-12 23:50:00,,0824.4,4.99,0.00,22.2,20.7,00.0,31.1,24.1,14.6,0000.0,0004.67,0009.53,0004.17
2023-02-12 23:51:00,,0824.4,5.00,0.00,22.2,20.7,00.0,31.1,24.1,14.7,0000.0,0004.65,0009.38,0004.17
2023-02-12 23:52:00,,0824.4,4.98,0.00,22.3,20.7,00.0,31.1,24.1,14.7,0000.0,0004.64,0009.12,0004.17
2023-02-12 23:53:00,,0824.4,5.00,0.00,22.3,20.8,00.0,31.1,24.1,14.5,0000.0,0004.65,0009.21,0004.16
2023-02-12 23:54:00,,0824.5,5.01,0.00,22.3,20.8,00.0,31.1,24.1,14.4,0000.0,0004.62,0009.19,0004.14
2023-02-12 23:55:00,,0824.4,4.96,0.00,22.3,20.8,00.0,31.1,24.1,14.4,0000.0,0004.61,0009.18,0004.13
2023-02-12 23:56:00,,0824.6,5.00,0.00,22.3,20.9,00.0,31.1,24.2,14.0,0000.0,0004.58,0009.33,0004.11
2023-02-12 23:57:00,,0824.7,4.98,0.00,22.3,20.9,00.0,31.2,24.2,13.9,0000.0,0004.55,0009.22,0004.09
2023-02-12 23:58:00,,0824.6,5.03,0.00,22.3,20.9,00.0,31.2,24.2,13.8,0000.0,0004.50,0008.61,0004.06
2023-02-12 23:59:00,,0824.6,5.01,0.00,22.3,21.0,00.0,31.2,24.2,13.5,0000.0,0004.46,0009.47,0004.03
